BIOMASS

导读

BIOMASS是欧洲空间局(ESA)计划于2025年4月29日发射的一颗地球观测卫星,核心任务是监测全球森林生物量变化,精准测算森林碳储量,助力理解陆地生态系统碳循环过程。卫星搭载合成孔径雷达,可穿透植被冠层获取三维结构信息,为气候变化研究、森林资源管理提供关键数据支撑,推动全球碳循环研究与气候政策制定。

Basic Information
目录编号:
63772
目录名称:
BIOMASS
国际标识:
2025-090A
轨道中心:
EARTH
卫星名称:
BIOMASS
卫星全名:
BIOMASS
卫星状态:
在轨 (已飞行501 天)
发射日期:
2025-04-29 UTC
国别 :
(ESA)
星等 :
--
This satellite is enrolled in the Space Conjunction Data Service (SCDS) and the current flight risk assessment level is: No High Risk
Orbit Information
数据来源 国际轨道数据 AOE轨道数据
星历时间 2026-09-12T07:18:30+0800
8小时前
查看轨道信息
2026-09-10T08:00:00+0800
2天前
查看轨道信息
半长轴 7048.845km 7048.856km
偏心率 0.0001237 0.0001245
轨道倾角 98.076° 98.077°
近地点辐角 89.595° 94.668°
升交点赤经 81.039° 79.097°
平近点角 270.540° 301.583°
近地点 669.836km 669.841km
远地点 671.58km 671.597km
周期 98.160分钟 98.161分钟
每日圈数 14.669856 14.669821
Detailed Information
使用方式:
暂无
2D Orbit Map
3D Orbit Map
Orbit Altitude Analysis Chart
Orbit Inclination Analysis Chart
Orbit Comprehensive Analysis Chart
View Comprehensive Chart
Conjunction Data List
Event ID Objects TCA Miss Dist (km) Collision Risk Probability Collision Risk Index (CRI) Action
CDM_260914-041302-760706-377221
BIOMASS (63772)
2026-09-14T
04:13:16+0000
2.600 km
极远距离
1.561612E-6 低风险 0.39
CDM_260910-101005-447606-377222
BIOMASS (63772)
2026-09-10T
10:10:40+0000
2.939 km
极远距离
1.342348E-6 低风险 0.38
Miss Distance Evolution Trend with All Objects
Collision Probability Evolution Trend with All Objects